Weather History for Hallock, MN

Change the Weather History Date:

Friday, December 9, 2011

  Actual Average Record
Temperature  
Mean Temperature 6 °F -  
Max Temperature 17 °F 18 °F 47 °F (1990)
Min Temperature -5 °F 2 °F -27 °F (1947)
Degree Days  
Heating Degree Days 59    
Moisture  
Dew Point -5 °F    
Average Humidity 65    
Maximum Humidity 85    
Minimum Humidity 38    
Precipitation  
Precipitation 0.00 in - - ()
Sea Level Pressure  
Sea Level Pressure 30.19 in    
Wind  
Wind Speed 7 mph (West)    
Max Wind Speed 10 mph    
Max Gust Speed -    
Visibility 10 miles    
Events      
Averages and records for this station are not official NWS values.
T = Trace of Precipitation, MM = Missing Value Source: NWS Daily Summary

Daily Weather History Graph

Daily Weather History Graph

Search for Another Location

Airport:

Trip Planner

Search our weather history database for the weather conditions in past years. The results will help you decide how hot, cold, wet, or windy it might be!

Date:

Astronomy

Dec. 09, 2011 Rise Set
Actual Time 8:08 AM CST 4:31 PM CST
Civil Twilight 7:31 AM CST 5:08 PM CST
Nautical Twilight 6:51 AM CST 5:48 PM CST
Astronomical Twilight 6:13 AM CST 6:26 PM CST
Moon 3:54 PM CST (12/9) 7:17 AM CST (12/9)
Length of Visible Light 9h 36m
Length of Day
8h 23m
Waxing Gibbous, 99% of the Moon is Illuminated
Dec 9
Waxing Gibbous
Dec 10
Full
Dec 17
Last Quarter
Dec 24
New
Jan 1
First Quarter

Hourly Weather History & Observations

Time (CST) Temp. Windchill Dew Point Humidity Pressure Visibility Wind Dir Wind Speed Gust Speed Precip Events Conditions
12:14 AM -2.2 °F -12.5 °F -7.6 °F 78% 30.10 in 10.0 mi West 4.6 mph - N/A   Clear
12:34 AM -2.2 °F -15.6 °F -7.6 °F 78% 30.10 in 10.0 mi West 6.9 mph - N/A   Clear
12:54 AM -2.2 °F -14.2 °F -7.6 °F 78% 30.10 in 10.0 mi West 5.8 mph - N/A   Clear
1:14 AM -2.2 °F -14.2 °F -7.6 °F 78% 30.11 in 10.0 mi WNW 5.8 mph - N/A   Clear
1:34 AM -2.2 °F -12.5 °F -9.4 °F 71% 30.12 in 10.0 mi West 4.6 mph - N/A   Clear
1:54 AM -2.2 °F -14.2 °F -7.6 °F 78% 30.12 in 10.0 mi West 5.8 mph - N/A   Clear
2:14 AM -2.2 °F -12.5 °F -7.6 °F 78% 30.12 in 10.0 mi West 4.6 mph - N/A   Clear
2:34 AM -2.2 °F -14.2 °F -7.6 °F 78% 30.13 in 10.0 mi WNW 5.8 mph - N/A   Clear
2:54 AM -2.2 °F -15.6 °F -5.8 °F 85% 30.14 in 10.0 mi WNW 6.9 mph - N/A   Clear
3:14 AM -0.4 °F -12.0 °F -5.8 °F 78% 30.14 in 10.0 mi WNW 5.8 mph - N/A   Clear
3:34 AM -0.4 °F -14.7 °F -5.8 °F 78% 30.16 in 10.0 mi WNW 8.1 mph - N/A   Clear
3:54 AM 1.4 °F -11.3 °F -5.8 °F 72% 30.15 in 10.0 mi WNW 6.9 mph - N/A   Clear
4:14 AM 1.4 °F -12.5 °F -5.8 °F 72% 30.16 in 10.0 mi WNW 8.1 mph - N/A   Clear
4:34 AM 1.4 °F -11.3 °F -5.8 °F 72% 30.16 in 10.0 mi WNW 6.9 mph - N/A   Clear
4:54 AM 1.4 °F -13.5 °F -5.8 °F 72% 30.16 in 10.0 mi WNW 9.2 mph - N/A   Clear
5:14 AM 1.4 °F -12.5 °F -5.8 °F 72% 30.16 in 10.0 mi WNW 8.1 mph - N/A   Clear
5:34 AM 1.4 °F -13.5 °F -5.8 °F 72% 30.17 in 10.0 mi WNW 9.2 mph - N/A   Clear
5:54 AM -0.4 °F -14.7 °F -5.8 °F 78% 30.18 in 10.0 mi WNW 8.1 mph - N/A   Clear
6:14 AM -0.4 °F -13.4 °F -7.6 °F 72% 30.18 in 10.0 mi WNW 6.9 mph - N/A   Clear
6:34 AM -2.2 °F -14.2 °F -7.6 °F 78% 30.19 in 10.0 mi West 5.8 mph - N/A   Clear
6:54 AM -4.0 °F -14.6 °F -9.4 °F 78% 30.19 in 10.0 mi West 4.6 mph - N/A   Clear
7:14 AM -5.8 °F -21.2 °F -9.4 °F 84% 30.20 in 10.0 mi WNW 8.1 mph - N/A   Clear
7:34 AM -2.2 °F -14.2 °F -9.4 °F 71% 30.20 in 10.0 mi West 5.8 mph - N/A   Clear
7:54 AM -5.8 °F -19.9 °F -11.2 °F 77% 30.21 in 10.0 mi West 6.9 mph - N/A   Clear
8:14 AM -5.8 °F -21.2 °F -9.4 °F 84% 30.21 in 10.0 mi West 8.1 mph - N/A   Clear
8:34 AM -4.0 °F -14.6 °F -7.6 °F 85% 30.22 in 10.0 mi West 4.6 mph - N/A   Clear
8:54 AM -2.2 °F -14.2 °F -5.8 °F 85% 30.22 in 10.0 mi West 5.8 mph - N/A   Clear
9:14 AM 1.4 °F -8.3 °F -5.8 °F 72% 30.23 in 10.0 mi West 4.6 mph - N/A   Clear
9:34 AM 3.2 °F -9.1 °F -2.2 °F 78% 30.24 in 10.0 mi West 6.9 mph - N/A   Clear
9:54 AM 5.0 °F -9.1 °F -2.2 °F 72% 30.25 in 10.0 mi WNW 9.2 mph - N/A   Clear
10:14 AM 6.8 °F -6.9 °F -2.2 °F 67% 30.25 in 10.0 mi WNW 9.2 mph - N/A   Clear
10:34 AM 8.6 °F -5.5 °F -2.2 °F 62% 30.25 in 10.0 mi WNW 10.4 mph - N/A   Clear
10:54 AM 8.6 °F -4.7 °F -2.2 °F 62% 30.25 in 10.0 mi WNW 9.2 mph - N/A   Clear
11:14 AM 10.4 °F -0.4 °F -2.2 °F 57% 30.24 in 10.0 mi West 6.9 mph - N/A   Clear
11:34 AM 10.4 °F -1.5 °F -2.2 °F 57% 30.24 in 10.0 mi WNW 8.1 mph - N/A   Clear
11:54 AM 12.2 °F 0.7 °F -2.2 °F 53% 30.23 in 10.0 mi West 8.1 mph - N/A   Clear
12:14 PM 12.2 °F 0.7 °F -2.2 °F 53% 30.23 in 10.0 mi WSW 8.1 mph - N/A   Clear
12:34 PM 14.0 °F 2.0 °F -2.2 °F 49% 30.23 in 10.0 mi West 9.2 mph - N/A   Clear
12:54 PM 15.8 °F 5.1 °F -2.2 °F 45% 30.23 in 10.0 mi West 8.1 mph - N/A   Clear
1:14 PM 15.8 °F 7.2 °F -2.2 °F 45% 30.22 in 10.0 mi West 5.8 mph - N/A   Clear
1:34 PM 15.8 °F 5.1 °F -2.2 °F 45% 30.21 in 10.0 mi West 8.1 mph - N/A   Clear
1:54 PM 17.6 °F 5.7 °F -2.2 °F 42% 30.21 in 10.0 mi West 10.4 mph - N/A   Clear
2:13 PM 17.6 °F 5.7 °F -2.2 °F 42% 30.20 in 10.0 mi West 10.4 mph - N/A   Clear
2:34 PM 17.6 °F 7.3 °F -2.2 °F 42% 30.21 in 10.0 mi West 8.1 mph - N/A   Clear
2:54 PM 17.6 °F 9.3 °F -4.0 °F 38% 30.21 in 10.0 mi West 5.8 mph - N/A   Clear
3:14 PM 17.6 °F 8.2 °F -2.2 °F 42% 30.21 in 10.0 mi West 6.9 mph - N/A   Clear
3:34 PM 17.6 °F 5.7 °F -2.2 °F 42% 30.20 in 10.0 mi West 10.4 mph - N/A   Clear
3:54 PM 15.8 °F 4.2 °F -4.0 °F 41% 30.20 in 10.0 mi West 9.2 mph - N/A   Clear
4:13 PM 15.8 °F 4.2 °F -2.2 °F 45% 30.21 in 10.0 mi West 9.2 mph - N/A   Clear
4:34 PM 15.8 °F 5.1 °F -2.2 °F 45% 30.20 in 10.0 mi WSW 8.1 mph - N/A   Clear
4:54 PM 12.2 °F 1.7 °F -2.2 °F 53% 30.20 in 10.0 mi WSW 6.9 mph - N/A   Clear
5:14 PM 10.4 °F -0.4 °F -2.2 °F 57% 30.20 in 10.0 mi WSW 6.9 mph - N/A   Clear
5:34 PM 10.4 °F -1.5 °F -2.2 °F 57% 30.20 in 10.0 mi WSW 8.1 mph - N/A   Clear
5:54 PM 8.6 °F -3.7 °F -2.2 °F 62% 30.20 in 10.0 mi WSW 8.1 mph - N/A   Clear
6:13 PM 8.6 °F -3.7 °F -2.2 °F 62% 30.20 in 10.0 mi WSW 8.1 mph - N/A   Clear
6:34 PM 8.6 °F -1.3 °F -2.2 °F 62% 30.19 in 10.0 mi WSW 5.8 mph - N/A   Clear
6:54 PM 6.8 °F -5.9 °F -4.0 °F 61% 30.19 in 10.0 mi SW 8.1 mph - N/A   Clear
7:14 PM 6.8 °F -5.9 °F -4.0 °F 61% 30.19 in 10.0 mi SW 8.1 mph - N/A   Clear
7:34 PM 6.8 °F -4.8 °F -5.8 °F 56% 30.19 in 10.0 mi SW 6.9 mph - N/A   Clear
7:54 PM 5.0 °F -6.9 °F -5.8 °F 61% 30.18 in 10.0 mi SW 6.9 mph - N/A   Clear
8:13 PM 3.2 °F -9.1 °F -5.8 °F 66% 30.17 in 10.0 mi South 6.9 mph - N/A   Clear
8:34 PM 1.4 °F -12.5 °F -7.6 °F 66% 30.16 in 10.0 mi South 8.1 mph - N/A   Clear
8:54 PM 1.4 °F -9.9 °F -5.8 °F 72% 30.15 in 10.0 mi South 5.8 mph - N/A   Clear
9:14 PM 1.4 °F -13.5 °F -5.8 °F 72% 30.15 in 10.0 mi South 9.2 mph - N/A   Clear
9:34 PM 3.2 °F -9.1 °F -5.8 °F 66% 30.15 in 10.0 mi SSW 6.9 mph - N/A   Clear
9:53 PM 3.2 °F -11.3 °F -4.0 °F 72% 30.12 in 10.0 mi South 9.2 mph - N/A   Scattered Clouds
10:14 PM 5.0 °F -9.1 °F -2.2 °F 72% 30.11 in 10.0 mi South 9.2 mph - N/A   Scattered Clouds
10:34 PM 6.8 °F -6.9 °F -2.2 °F 67% 30.10 in 10.0 mi South 9.2 mph - N/A   Clear
10:54 PM 8.6 °F -5.5 °F -0.4 °F 67% 30.10 in 10.0 mi South 10.4 mph - N/A   Scattered Clouds
11:14 PM 10.4 °F -2.4 °F -0.4 °F 62% 30.10 in 10.0 mi South 9.2 mph - N/A   Scattered Clouds
11:34 PM 10.4 °F -3.3 °F -0.4 °F 62% 30.09 in 10.0 mi South 10.4 mph - N/A   Mostly Cloudy
11:53 PM 10.4 °F -3.3 °F 1.4 °F 67% 30.08 in 10.0 mi South 10.4 mph - N/A   Overcast